Location: Usti nad Labem
(50.6670°N, 14.0330°E)
Time: 04:27:56
(UTC+02:00)

ISS - Visible Passes

Search period start: 17 October 2019 00:00
Search period end: 27 October 2019 00:00
Orbit: 411 x 421 km, 51.6° (Epoch: 16 October)

Date Brightness Start Highest point End Pass type
(mag) Time Alt. Az. Time Alt. Az. Time Alt. Az.
24 Oct -0.8 06:50:38 10° S 06:52:42 15° SE 06:54:46 10° ESE visible
25 Oct -0.4 06:04:16 10° SE 06:04:23 10° SE 06:04:30 10° SE visible
26 Oct -1.9 06:48:57 10° SSW 06:51:58 30° SSE 06:54:58 10° E visible
